星链-11395 (STARLINK-11395)

导读

STARLINK-11395是美国太空探索技术公司(SpaceX)于2024年11月14日发射的星链(Starlink)系列低轨通信卫星,隶属于SpaceX主导的全球卫星互联网星座项目。星链计划计划部署数万颗低轨卫星,旨在为全球偏远地区提供低延迟高速宽带服务,该卫星目前仍正常在轨工作,属于星链星座组网建设的组成部分,支撑星座服务覆盖能力的持续扩展。

基本信息
目录编号:
61951
目录名称:
STARLINK-11395
国际标识:
2024-209N
轨道中心:
EARTH
卫星名称:
星链-11395
卫星全名:
星链-11395 (STARLINK-11395)
卫星状态:
在轨 (已飞行666 天)
发射日期:
2024-11-14 UTC
国别 :
美国 (US)
星等 :
--
该卫星已列入 空间交会检测服务 Space Conjunction Data Service (SCDS) ,当前飞行风险评估等级: 无高风险
轨道信息
数据来源 国际轨道数据
星历时间: 2026-09-10T07:31:56+0800
1天前
查看轨道信息
半长轴: 6737.515km
偏心率: 0.0001219
轨道倾角: 53.158°
近地点辐角 134.077°
升交点赤经 182.714°
平近点角 226.035°
近地点: 358.556km
远地点: 360.2km
周期: 91.730分钟
每日圈数: 15.698319
详细信息
固有亮度:
5
最大亮度:
2.5
卫星平台:
Starlink V1.0
覆盖范围:
全球
运营商:
太空探索技术公司
运营商所在国:
美国
制造商(研发单位):
太空探索技术公司
制造商所在国:
美国
使用方式:
暂无
卫星简介
Starlink 计划是 SpaceX 推出的全球卫星互联网项目,通过发射低轨道卫星,为全球尤其是偏远地区提供高速、低延迟的互联网服务。自 2019 年起,Starlink 已部署数千颗卫星,旨在缩小全球数字鸿沟,推动互联网普及。该项目还为军事、航空等行业提供通信支持,带来广泛经济效益。
2D轨道图
3D轨道图
轨道高度分析图
轨道倾角分析图
轨道综合分析图
查看轨道综合分析图
交会数据列表
事件ID 空间交会对象 最接近时刻(TCA) 交会距离 交会风险概率(CRP) 交会风险指数(CRI) 操作
CDM_260912-053706-195106-291921
2026-09-12T
05:37:38+0000
2.372 km
极远距离
1.57493E-6 低风险 0.39
与全量物体交会距离演化趋势
与全量物体交会风险概率演化趋势